Location: Linz
(48.3300°N, 14.3000°E)
Time: 20:23:41
(UTC+01:00)

Vanguard 2 - Visible Passes

Search period start: 21 February 2018 00:00
Search period end: 03 March 2018 00:00
Orbit: 553 x 2939 km, 32.9° (Epoch: 20 February)

Date Brightness Start Highest point End Pass type
(mag) Time Alt. Az. Time Alt. Az. Time Alt. Az.
21 Feb 10.0 18:08:36 10° SW 18:16:22 24° S 18:21:47 10° SE visible
21 Feb 9.7 20:19:13 10° WSW 20:24:08 18° SSW 20:24:40 18° SSW visible
22 Feb 9.9 18:26:09 10° SW 18:34:10 26° S 18:39:41 10° SE visible
22 Feb 9.9 20:37:26 10° WSW 20:41:44 16° SSW 20:41:52 16° SSW visible
23 Feb 9.9 18:43:54 10° WSW 18:51:56 27° S 18:57:26 10° SE visible
23 Feb 10.1 20:55:59 10° WSW 20:59:05 14° SSW 20:59:05 14° SSW visible
24 Feb 9.9 19:01:47 10° WSW 19:09:39 26° SSW 19:14:53 11° SE visible
24 Feb 10.4 21:15:44 10° SW 21:16:19 10° SW 21:16:19 10° SW visible
25 Feb 9.9 19:19:49 10° WSW 19:27:17 24° SSW 19:32:07 12° SSE visible
26 Feb 10.0 19:38:02 10° WSW 19:44:52 21° SSW 19:49:22 12° SSE visible
27 Feb 10.2 19:56:30 10° WSW 20:02:20 18° SSW 20:06:38 10° S visible
28 Feb 10.3 18:01:43 10° WSW 18:12:21 31° SSW 18:19:26 10° SE visible
28 Feb 10.4 20:15:25 10° WSW 20:19:43 14° SW 20:23:15 10° S visible
01 Mar 10.4 18:19:48 10° WSW 18:29:58 29° SSW 18:36:52 10° SE visible
01 Mar 10.6 20:36:21 10° SW 20:37:00 10° SW 20:37:38 10° SW visible
02 Mar 10.5 18:38:02 10° WSW 18:47:30 26° SSW 18:54:07 10° SSE visible
